Content
SEND FEEDBACK

Daily
Averages
Monthly
Summary
United States of America

CHICAGO, ILLINOIS


Home > North America > United States > Illinois
Elevation: 674 feet     Latitude: 41 59N     Longitude: 087 54W

WEATHER
 
SELECT A DAY
Number of Records: 197,935;   Date Range: 7/8/95 - 10/24/14
 
SHARE

PRINT THIS DATA

[ ← Previous Day ]
WEATHER ALMANAC - AUGUST 18, 2014
[ Next Day → ]
[ °C ]   °F
Weather ElementAverageHighLow
Temperature71.3 °F84 °F (3:52 pm)64.9 °F (12:52 am)
Dewpoint63.6 °F66 °F (11:41 am)61 °F (7:52 am)
Humidity78.2 %94 % (8:49 am)51 % (6:52 pm)
Barometer29.89 in29.95 in (12:52 am)29.79 in (5:52 pm)
Wind Speed3.4 mph12.7 mph (11:52 am)
Weather ElementAverage
Visibility7.3 mi
Wind DirectionESE (104.5 °)

Weather ElementTotal
Precipitation---
Cooling Degree Days9.5 (Base 65)
Growing Degree Days24.5 (Base 50)
Averaged from 33 records on August 18, 2014
WEATHER CONDITIONS BREAKOUT
WIND DIRECTION BREAKOUT
WEATHER BY HOUR - AUGUST 18, 2014
[ °C ]   °F
Local TimeTemperatureDewpointHumidityBarometerVisibilityWind DirectionWind SpeedGust SpeedPrecipitationEventsConditions
12:52 AM64.9 °F61.0 °F87 %29.95 in10.0 miENE (70°)3.5 mphOvercast
2:52 AM66.0 °F62.1 °F87 %29.92 in10.0 miCalmOvercast
3:52 AM64.9 °F62.1 °F90 %29.93 in10.0 miCalmOvercast
4:52 AM66.0 °F62.1 °F87 %29.92 in8.0 miNNW (340°)3.5 mphOvercast
5:12 AM66.0 °F62.1 °F87 %29.93 in7.0 miNW (310°)4.6 mphOvercast
5:52 AM64.9 °F62.1 °F90 %29.93 in4.0 miNW (320°)3.5 mphOvercast
6:06 AM64.9 °F63.0 °F93 %29.93 in2.5 miNE (40°)3.5 mphOvercast
6:23 AM64.9 °F63.0 °F93 %29.93 in1.8 miNNE (20°)3.5 mphOvercast
6:30 AM64.9 °F63.0 °F93 %29.93 in2.0 miNorth (10°)3.5 mphOvercast
6:52 AM64.9 °F63.0 °F93 %29.94 in2.5 miNorth (10°)4.6 mphOvercast
7:43 AM66.0 °F63.0 °F90 %29.93 in3.0 miCalmOvercast
7:52 AM66.0 °F63.0 °F90 %29.93 in3.0 miCalmOvercast
8:02 AM66.0 °F63.0 °F90 %29.94 in2.5 miCalmOvercast
8:19 AM66.0 °F64.0 °F93 %29.94 in1.5 miNNE (20°)3.5 mphOvercast
8:49 AM66.2 °F64.4 °F94 %29.93 in3.0 miCalmOvercast
8:52 AM66.9 °F64.0 °F90 %29.93 in4.0 miCalmOvercast
9:14 AM68.0 °F63.0 °F84 %29.93 in7.0 miCalmOvercast
9:52 AM68.0 °F64.0 °F87 %29.92 in8.0 miCalmOvercast
10:52 AM70.0 °F64.0 °F81 %29.92 in10.0 miSouth (190°)5.8 mphOvercast
11:38 AM73.0 °F64.0 °F73 %29.92 in10.0 miCalmMostly Cloudy
11:45 AM73.0 °F64.0 °F73 %29.91 in10.0 miWSW (250°)3.5 mphScattered Clouds
11:52 AM73.9 °F64.0 °F71 %29.90 in10.0 miVariable3.5 mphPartly Cloudy
12:52 PM78.1 °F64.9 °F64 %29.88 in10.0 miSouth (170°)4.6 mphClear
1:52 PM81.0 °F64.9 °F58 %29.87 in10.0 miVariable3.5 mphClear
2:52 PM82.0 °F64.0 °F54 %29.85 in10.0 miSouth (190°)8.1 mphPartly Cloudy
3:52 PM84.0 °F64.0 °F51 %29.82 in10.0 miWSW (240°)8.1 mphClear
4:52 PM84.0 °F64.0 °F51 %29.81 in10.0 miSW (230°)12.7 mphPartly Cloudy
5:52 PM82.0 °F63.0 °F52 %29.79 in10.0 miSSW (200°)8.1 mphPartly Cloudy
6:52 PM82.0 °F64.0 °F54 %29.79 in10.0 miWSW (250°)8.1 mphPartly Cloudy
7:52 PM80.1 °F64.9 °F60 %29.79 in10.0 miSW (220°)5.8 mphClear
8:52 PM78.1 °F66.0 °F66 %29.80 in10.0 miSSW (200°)3.5 mphClear
9:52 PM75.0 °F66.0 °F73 %29.81 in10.0 miSouth (170°)3.5 mphClear
11:52 PM72.0 °F66.0 °F81 %29.80 in10.0 miCalmMostly Cloudy
Hourly data recorded from KPWK, located miles away from Chicago, Illinois







STORIES FROM OUR PARTNERS